Rbgn^[z[y[W
メイン
   新天体発見情報
     Comet C/2019 K6 (PANSTARRS)
投稿するにはまず登録を

スレッド表示 | 新しいものから 前のトピック | 次のトピック | 下へ
投稿者 スレッド
佐藤裕久
投稿日時: 2020-6-28 14:21
モデレータ
登録日: 2005-6-12
居住地: 日本
投稿: 2505
オンライン
Comet C/2019 K6 (PANSTARRS)

2019年5月31.6日、HaleakalaにあるPan-STARRS2 1.8-m Ritchey-Chretien反射望遠鏡で
小惑星状天体が発見された。他のCCD観測者によって彗星状であることがわかった。
この彗星はMPEC2019年-N10上でA/2019 K6の仮符号が与えられていた。
発見観測は、2019年5月7.5日にPan-STARRS1に発見前の観測があるのに気づいた。
佐藤英貴氏(東京都文京区)の報告では、2020年3月20.78日UT、Siding Spring, NSWの0.51-m 
f/6.8 アストログラフで得た画像から、強く集光した12"のコマが見え、6".5の円形範囲で
測定した光度は18.2等であった。

彗星機能の追加報告は次の通り:

OC   Date        Reporter           Coma    Tail    PA          Exposures
Q62  2020-01-29  H. Sato             10"                         10x60s
Q62  2020-03-20  H. Sato             12"                          8x60s
G96  2020-04-24  K. Wierzchos        15"     40"    50            4x30s
Q62  2020-04-25  E. Guido             5"     20"    55           12x60s

発見位置は次のとおり、

     2019 UT             R.A. (2000) Decl.       Mag.
     May   7.46071   18 01 14.06   +16 07 39.0   21.1
           7.47302   18 01 13.28   +16 07 41.0   21.3
           7.48531   18 01 12.51   +16 07 42.8   20.9
          31.55619   17 31 08.36   +16 32 19.8   20.6
          31.55619   17 31 08.37   +16 32 19.9   21.1
          31.56847   17 31 07.32   +16 32 19.2   20.8
          31.56847   17 31 07.43   +16 32 19.0   24.2
          31.58080   17 31 06.27   +16 32 18.7   20.9
          31.58080   17 31 06.26   +16 32 18.5   20.9

MPCの楕円軌道要素と位置推算表は次のとおり、

Orbital elements:
    C/2019 K6 (PANSTARRS)                                                       
Epoch 2020 May 31.0 TT = JDT 2459000.5                                          
T 2020 May 20.17656 TT                                  Rudenko                 
q   3.9286308            (2000.0)            P               Q                  
z  +0.0006627      Peri.  187.61622     -0.78645939     -0.35804591             
 +/-0.0000012      Node    42.94004     -0.52056136     +0.82278740             
e   0.9973964      Incl.  132.37329     -0.33241165     -0.44138874             
From 305 observations 2019 May 7-2020 May 19, mean residual 0".5.               
                                                                                
Ephemeris:
Date    TT    R. A. (2000) Decl.     Delta      r    Elong.  Phase   m1
2020 04 26    14 35 26.8 -18 38 57   2.9338  3.9342   172.8     1.8  19.8
...
2020 05 11    14 02 21.7 -18 41 48   2.9509  3.9294   163.4     4.2  19.8
...
2020 05 19    13 45 42.8 -18 34 27   3.0057  3.9286   152.1     6.9  19.8
...
2020 05 25    13 34 08.6 -18 26 33   3.0657  3.9289   143.8     8.8  19.9
2020 05 26    13 32 18.4 -18 25 07   3.0771  3.9290   142.4     9.0  19.9
2020 05 27    13 30 29.8 -18 23 41   3.0889  3.9291   141.1     9.3  19.9
...
2020 06 02    13 20 14.8 -18 14 57   3.1673  3.9302   133.1    10.9  19.9
...
2020 06 10    13 08 15.8 -18 04 16   3.2894  3.9328   122.8    12.5  20.0
...
2020 06 25    12 50 59.7 -17 52 47   3.5567  3.9409   104.8    14.4  20.2

(MPEC 2020-K171、CBET 4784)

スレッド表示 | 新しいものから 前のトピック | 次のトピック | トップ

投稿するにはまず登録を
 
© 1999 Tsutomu Seki.